EW4099 Giovinazzo IT current weather conditions

sailwx.info

Wind from 032 at 2 knots gusting 6

Air temperature 28.3° C
Dewpoint 23.5° C

Last reported at 2020-Aug-11 12:00 UTC.
Time now 2020-Aug-11 12:38 UTC

Location: N 41°12' E 016°46'.
View on Google Maps.

See reports from other nearby stations

  
Tides and Currents Weather Stations Pressure Air Temp Water Temp Dewpoint Dewpoint Depression Visibility Wind Speed Wind Dir Waves Ship Positions
date/time (UTC)wind fromknots sea level pressurealtimeterstation pressurevisibilityair tempwater tempwave heightnotes
2020-Aug-11 12:00 032 2 gusting 6 28.3
2020-Aug-11 11:45 037 2 gusting 7 27.8
2020-Aug-11 11:31 053 2 gusting 6 27.8
2020-Aug-11 11:15 027 3 gusting 9 27.8
2020-Aug-11 11:00 030 3 gusting 6 27.2
2020-Aug-11 10:46 023 2 gusting 7 27.2
2020-Aug-11 10:30 017 2 gusting 6 27.2
2020-Aug-11 10:15 009 2 gusting 6 27.8
2020-Aug-11 10:01 357 2 gusting 6 27.8
2020-Aug-11 09:45 017 3 gusting 7 27.2
2020-Aug-11 09:30 008 2 gusting 6 27.2
2020-Aug-11 09:16 347 3 gusting 6 27.2
2020-Aug-11 09:00 017 3 gusting 7 27.2
2020-Aug-11 08:45 350 2 gusting 6 27.8
2020-Aug-11 08:31 350 2 gusting 6 27.2
2020-Aug-11 08:15 349 2 gusting 6 27.2
2020-Aug-11 08:00 339 1 gusting 5 27.2
2020-Aug-11 07:46 356 1 gusting 3 27.2
2020-Aug-11 07:30 330 1 gusting 3 27.2
2020-Aug-11 07:15 355 1 gusting 3 27.2
2020-Aug-11 07:01 026 0 gusting 3 26.7
2020-Aug-11 06:45 018 0 gusting 3 26.7
2020-Aug-11 06:30 012 0 gusting 1 26.7
2020-Aug-11 06:16 180 26.7
2020-Aug-11 06:00 26.1
2020-Aug-11 05:45 180 24.4
2020-Aug-11 05:31 180 0 gusting 1 23.3
2020-Aug-11 05:15 203 22.8
2020-Aug-11 05:00 194 0 gusting 1 21.7
2020-Aug-11 04:46 190 1 gusting 3 21.1
2020-Aug-11 04:30 203 0 gusting 3 21.1
2020-Aug-11 04:15 197 0 gusting 3 21.1
2020-Aug-11 04:01 184 0 gusting 3 21.1
2020-Aug-11 03:45 196 0 gusting 1 21.1
2020-Aug-11 03:30 201 1 gusting 3 21.1
2020-Aug-11 03:16 192 1 gusting 5 21.1
2020-Aug-11 03:00 198 0 gusting 3 21.1
2020-Aug-11 02:45 224 0 gusting 3 21.1
2020-Aug-11 02:30 229 0 gusting 3 21.1
2020-Aug-11 02:16 209 0 gusting 1 21.1
2020-Aug-11 02:00 210 0 gusting 1 21.1
2020-Aug-11 01:45 180 0 gusting 1 21.1
2020-Aug-11 01:31 192 0 gusting 3 21.1
2020-Aug-11 01:15 186 0 gusting 1 21.7
2020-Aug-11 01:00 211 0 gusting 3 21.7
2020-Aug-11 00:46 225 0 gusting 3 21.7
2020-Aug-11 00:30 225 0 gusting 1 21.7
2020-Aug-11 00:15 225 0 gusting 3 21.7
2020-Aug-11 00:01 192 0 gusting 3 21.7
2020-Aug-10 23:45 216 22.2
2020-Aug-10 23:30 210 0 gusting 1 22.2
2020-Aug-10 23:16 348 0 gusting 3 22.2
2020-Aug-10 23:00 22.2
2020-Aug-10 22:45 22.8
2020-Aug-10 22:31 22.8
2020-Aug-10 22:15 22.8
2020-Aug-10 22:00 23.3
2020-Aug-10 21:46 23.3
2020-Aug-10 21:30 23.3
2020-Aug-10 21:15 23.3
2020-Aug-10 21:01 23.9
2020-Aug-10 20:45 23.3
2020-Aug-10 20:30 23.9
2020-Aug-10 20:15 24.4
2020-Aug-10 20:01 25.0
2020-Aug-10 19:45 25.0
2020-Aug-10 19:30 25.6
2020-Aug-10 19:16 26.1
2020-Aug-10 19:00 26.1
2020-Aug-10 18:45 26.7
2020-Aug-10 18:31 26.7
2020-Aug-10 18:15 26.7
2020-Aug-10 18:00 27.2
2020-Aug-10 17:45 356 0 gusting 1 27.2
2020-Aug-10 17:31 002 0 gusting 3 27.2
2020-Aug-10 17:15 018 0 gusting 3 27.2
2020-Aug-10 17:00 018 1 gusting 3 27.2
2020-Aug-10 16:46 015 0 gusting 3 27.8
2020-Aug-10 16:30 028 1 gusting 5 27.8
2020-Aug-10 16:15 035 1 gusting 5 27.8
2020-Aug-10 16:01 036 1 gusting 6 28.3
2020-Aug-10 15:45 024 1 gusting 6 27.8
2020-Aug-10 15:30 018 2 gusting 6 27.8
2020-Aug-10 15:16 032 1 gusting 3 28.3
2020-Aug-10 15:00 033 2 gusting 6 28.3
2020-Aug-10 14:45 024 4 gusting 7 27.8
2020-Aug-10 14:30 013 4 gusting 7 27.8
2020-Aug-10 14:16 024 2 gusting 7 28.3
2020-Aug-10 14:00 023 3 gusting 6 28.3
2020-Aug-10 13:45 023 2 gusting 9 28.3
2020-Aug-10 13:31 022 2 gusting 6 28.3
2020-Aug-10 13:15 037 1 gusting 5 28.9
2020-Aug-10 13:00 035 3 gusting 7 28.3
2020-Aug-10 12:46 025 3 gusting 6 27.8
2020-Aug-10 12:30 026 4 gusting 7 27.8
2020-Aug-10 12:15 042 2 gusting 6 28.3
2020-Aug-10 12:00 022 3 gusting 7 27.8
2020-Aug-10 11:45 030 2 gusting 7 28.3
2020-Aug-10 11:30 042 2 gusting 6 27.8
2020-Aug-10 11:15 029 3 gusting 9 27.8
2020-Aug-10 11:00 044 1 gusting 5 28.9
2020-Aug-10 10:45 028 2 gusting 6 28.3
2020-Aug-10 10:31 037 2 gusting 6 28.3
2020-Aug-10 10:15 034 1 gusting 6 28.9
2020-Aug-10 10:00 024 1 gusting 5 28.9
2020-Aug-10 09:46 034 1 gusting 6 28.3
2020-Aug-10 09:30 049 1 gusting 6 28.9
2020-Aug-10 09:15 028 1 gusting 3 29.4
2020-Aug-10 09:01 028 1 gusting 5 28.9
2020-Aug-10 08:45 033 2 gusting 6 28.3
2020-Aug-10 08:30 003 2 gusting 6 28.3
2020-Aug-10 08:16 343 2 gusting 6 27.8
2020-Aug-10 08:00 356 2 gusting 6 27.8
2020-Aug-10 07:45 346 2 gusting 6 27.8
2020-Aug-10 07:30 327 2 gusting 6 27.8
2020-Aug-10 07:16 327 3 gusting 6 27.8
2020-Aug-10 07:00 333 2 gusting 6 27.8
2020-Aug-10 06:45 317 3 gusting 6 27.8
2020-Aug-10 06:31 307 3 gusting 5 27.2
2020-Aug-10 06:15 300 3 gusting 6 26.7
2020-Aug-10 06:00 312 3 gusting 6 26.1
2020-Aug-10 05:46 305 3 gusting 6 25.6
2020-Aug-10 05:30 308 2 gusting 5 25.0
2020-Aug-10 05:15 293 0 gusting 3 23.9
2020-Aug-10 05:01 293 0 gusting 3 23.3
2020-Aug-10 04:45 290 0 gusting 3 22.8
2020-Aug-10 04:30 293 0 gusting 1 23.3
2020-Aug-10 04:16 300 0 gusting 3 23.9
2020-Aug-10 04:00 309 1 gusting 3 24.4
2020-Aug-10 03:45 308 1 gusting 6 24.4
2020-Aug-10 03:31 312 0 gusting 3 24.4
2020-Aug-10 03:15 315 1 gusting 3 25.0
2020-Aug-10 03:00 317 1 gusting 5 25.0
2020-Aug-10 02:45 321 2 gusting 6 25.6
2020-Aug-10 02:30 318 2 gusting 6 25.0
2020-Aug-10 02:16 308 3 gusting 6 25.0
2020-Aug-10 02:00 307 4 gusting 9 25.0
2020-Aug-10 01:45 305 4 gusting 7 25.0
2020-Aug-10 01:31 314 3 gusting 6 24.4
2020-Aug-10 01:15 305 3 gusting 6 25.0
2020-Aug-10 01:00 305 3 gusting 7 25.0
2020-Aug-10 00:45 316 2 gusting 5 25.0
2020-Aug-10 00:30 308 3 gusting 7 25.0
2020-Aug-10 00:16 310 3 gusting 6 25.0
2020-Aug-10 00:00 314 3 gusting 6 25.0
2020-Aug-09 23:45 302 4 gusting 7 25.0
2020-Aug-09 23:31 305 3 gusting 6 25.0
2020-Aug-09 23:15 299 3 gusting 6 25.0
2020-Aug-09 23:00 298 3 gusting 6 25.0
2020-Aug-09 22:46 297 3 gusting 6 25.0
2020-Aug-09 22:30 309 2 gusting 6 25.0
2020-Aug-09 22:15 294 0 gusting 3 25.0
2020-Aug-09 22:00 304 1 gusting 3 25.0
2020-Aug-09 21:45 298 1 gusting 3 25.6
2020-Aug-09 21:31 297 1 gusting 3 25.6
2020-Aug-09 21:15 300 1 gusting 3 26.1
2020-Aug-09 21:00 310 2 gusting 6 26.7
2020-Aug-09 20:46 312 3 gusting 6 26.7
2020-Aug-09 20:30 318 4 gusting 9 26.7
2020-Aug-09 20:15 322 3 gusting 7 26.7
2020-Aug-09 20:01 315 2 gusting 3 26.7
2020-Aug-09 19:45 283 0 gusting 3 26.1
2020-Aug-09 19:30 277 0 gusting 3 26.1
2020-Aug-09 19:16 307 1 gusting 5 26.7
2020-Aug-09 19:00 307 2 gusting 6 27.2
2020-Aug-09 18:45 317 2 gusting 5 27.2
2020-Aug-09 18:31 319 2 gusting 5 27.2
2020-Aug-09 18:15 314 2 gusting 5 27.2
2020-Aug-09 18:00 315 2 gusting 5 27.2
2020-Aug-09 17:46 311 3 gusting 7 27.2
2020-Aug-09 17:30 313 3 gusting 6 27.8
2020-Aug-09 17:15 317 3 gusting 7 27.8
2020-Aug-09 17:00 323 3 gusting 7 27.8
2020-Aug-09 16:46 326 3 gusting 6 27.8
2020-Aug-09 16:30 343 3 gusting 6 27.8
2020-Aug-09 16:15 325 4 gusting 9 27.8
2020-Aug-09 16:00 328 4 gusting 9 28.3
2020-Aug-09 15:45 337 2 gusting 6 28.9
2020-Aug-09 15:31 347 3 gusting 7 28.9
2020-Aug-09 15:15 003 3 gusting 7 28.9
2020-Aug-09 15:00 356 3 gusting 9 28.9
2020-Aug-09 14:46 358 3 gusting 9 28.9
2020-Aug-09 14:30 016 4 gusting 9 28.9
2020-Aug-09 14:15 026 4 gusting 9 28.9
2020-Aug-09 14:01 006 4 gusting 11 28.9
2020-Aug-09 13:45 006 4 gusting 9 28.9
2020-Aug-09 13:30 331 4 gusting 7 28.9
2020-Aug-09 13:16 336 5 gusting 9 28.3
2020-Aug-09 13:00 331 4 gusting 9 28.3
2020-Aug-09 12:45 337 4 gusting 9 28.3
2020-Aug-09 12:31 331 4 gusting 9 28.3
2020-Aug-09 12:15 345 3 gusting 7 28.9
2020-Aug-09 12:00 014 3 gusting 9 28.9